EW3204 Weather Reports


Display with metric or nautical units.
time (UTC)temp
F
wind
direction
speed
MPH
gust
MPH
rain 1hr
in
rain 24hr
in
rain mn
in
humidity
%
barometer
mb
20260502163017 87 358 1.0 0.0 0.00 0.00 0.00 11 1009.4
20260502161508 87 40 1.0 0.0 0.00 0.00 0.00 11 1009.5
20260502151603 79 305 4.0 0.0 0.00 0.00 0.00 19 1009.5
20260502123041 70 294 5.0 0.0 0.00 0.00 0.00 26 1008.0
20260502121535 69 282 4.0 0.0 0.00 0.00 0.00 27 1007.9
20260502114530 70 273 4.0 0.0 0.00 0.00 0.00 26 1007.8
20260502113030 71 275 4.0 0.0 0.00 0.00 0.00 26 1007.7
20260502111529 71 289 2.0 0.0 0.00 0.00 0.00 26 1007.7
20260502110031 70 260 4.0 0.0 0.00 0.00 0.00 27 1007.6
20260502104526 71 292 3.0 0.0 0.00 0.00 0.00 26 1007.6
20260502103032 72 227 5.0 0.0 0.00 0.00 0.00 26 1007.5
20260502101541 71 298 6.0 0.0 0.00 0.00 0.00 27 1007.6
20260502091514 74 222 2.0 0.0 0.00 0.00 0.00 24 1007.3
20260502070118 75 75 2.0 0.0 0.00 0.00 0.00 32 1007.8
20260502064558 75 143 4.0 0.0 0.00 0.00 0.00 31 1007.7
20260502063059 78 138 2.0 0.0 0.00 0.00 0.00 28 1007.6
20260502061603 79 274 1.0 0.0 0.00 0.00 0.00 26 1007.4
20260502060055 80 254 3.0 0.0 0.00 0.00 0.00 26 1007.3
20260502054558 80 259 3.0 0.0 0.00 0.00 0.00 27 1007.3
20260502053054 80 248 2.0 0.0 0.00 0.00 0.00 27 1007.3
20260502051620 80 280 4.0 0.0 0.00 0.00 0.00 26 1007.2
20260502050057 81 260 2.0 0.0 0.00 0.00 0.00 27 1007.3
20260502044552 81 7 2.0 0.0 0.00 0.00 0.00 23 1007.2
20260502043057 82 282 2.0 0.0 0.00 0.00 0.00 19 1007.1
20260502041551 83 254 5.0 0.0 0.00 0.00 0.00 17 1006.8
20260502040057 84 280 8.0 0.0 0.00 0.00 0.00 16 1006.7
20260502034550 84 273 7.0 0.0 0.00 0.00 0.00 16 1006.5
20260502033050 84 286 8.0 0.0 0.00 0.00 0.00 15 1006.3
20260502031548 85 260 10.0 0.0 0.00 0.00 0.00 15 1006.1
20260502030052 85 269 9.0 0.0 0.00 0.00 0.00 14 1005.8
20260502024549 85 256 11.0 0.0 0.00 0.00 0.00 14 1005.7
20260502023059 86 254 10.0 0.0 0.00 0.00 0.00 15 1005.5
20260502021546 86 252 10.0 0.0 0.00 0.00 0.00 14 1005.4
20260502014549 88 304 10.0 0.0 0.00 0.00 0.00 14 1005.2
20260502013059 89 285 9.0 0.0 0.00 0.00 0.00 14 1005.1
20260502011545 89 263 10.0 0.0 0.00 0.00 0.00 14 1005.1
20260502010044 90 266 9.0 0.0 0.00 0.00 0.00 14 1004.9
20260502004550 91 303 5.0 0.0 0.00 0.00 0.00 14 1004.9
20260502003042 90 347 5.0 0.0 0.00 0.00 0.00 12 1004.9
20260502001601 91 84 3.0 0.0 0.00 0.00 0.00 11 1004.9
20260502000040 90 45 4.0 0.0 0.00 0.00 0.00 12 1005.0
20260501234539 91 71 6.0 0.0 0.00 0.00 0.00 12 1005.0
20260501233044 91 75 4.0 0.0 0.00 0.00 0.00 12 1005.1
20260501231537 91 139 3.0 0.0 0.00 0.00 0.00 12 1005.2
20260501230038 90 74 4.0 0.0 0.00 0.00 0.00 12 1005.5
20260501224534 90 106 4.0 0.0 0.00 0.00 0.00 12 1005.7
20260501223034 90 84 5.0 0.0 0.00 0.00 0.00 12 1005.8
20260501221533 90 112 7.0 0.0 0.00 0.00 0.00 12 1006.0
20260501220059 90 29 7.0 0.0 0.00 0.00 0.00 12 1006.3
20260501214535 90 176 6.0 0.0 0.00 0.00 0.00 12 1006.6
20260501213031 90 70 4.0 0.0 0.00 0.00 0.00 12 1006.8
20260501211529 89 48 7.0 0.0 0.00 0.00 0.00 13 1007.0
20260501210032 89 94 4.0 0.0 0.00 0.00 0.00 13 1007.1
20260501204533 89 75 7.0 0.0 0.00 0.00 0.00 13 1007.3
20260501203032 89 73 8.0 0.0 0.00 0.00 0.00 14 1007.4
20260501201534 88 27 6.0 0.0 0.00 0.00 0.00 14 1007.4
20260501200022 88 325 5.0 0.0 0.00 0.00 0.00 14 1007.6
20260501194522 88 42 7.0 0.0 0.00 0.00 0.00 14 1007.8
20260501193030 87 79 6.0 0.0 0.00 0.00 0.00 15 1007.9
20260501191517 87 31 6.0 0.0 0.00 0.00 0.00 14 1008.1
20260501190016 87 96 6.0 0.0 0.00 0.00 0.00 15 1008.4
20260501184524 87 23 5.0 0.0 0.00 0.00 0.00 15 1008.5
20260501183013 86 119 4.0 0.0 0.00 0.00 0.00 15 1008.6
20260501181533 86 51 5.0 0.0 0.00 0.00 0.00 13 1008.8
20260501180012 85 63 5.0 0.0 0.00 0.00 0.00 17 1008.9
20260501174507 84 81 4.0 0.0 0.00 0.00 0.00 19 1008.9